Погода в Заречье

Россия / Иркутская область     55°31′52″N   99°24′29″E
темп.,
°C
ветер,
м/с
пор.,
м/с
влажн.,
%
обл.,
%
осадки,
мм/ч
давл.,
гПа
погр.,
м
9 мая, вс
вс923:00+6з2688100 0.4 1012144
02:00+5юз229198 0.5 101128
05:00+5юз1495100 0.8 1011503
08:00+3сз3797100 3.4 1012571
11:00+6з4778100 0.1 10121203
14:00+6зсз5780100 0.6 10121071
17:00+5сз488691 0.2 1014766
20:00+4сз4891100 0.5 1015715
10 мая, пн
пн1023:00+3зсз3896100 0.1 1016653
02:00+3зсз3698100 1.4 1016601
05:00+3зсз3798100 0.1 1017475
08:00+4сз3797100 0.3 1018615
11:00+4зсз3697100 0.8 1019613
14:00+4зсз3596100 0.9 1020502
17:00+8з2581100 0.1 1020671
20:00+8зсз368298 1.3 1020188
11 мая, вт
вт1123:00+5з249698 0.7 1021101
02:00+3зсз119514 0.7 102110
05:00+2з11955 0.0 102110
08:00+6з11845 0.0 1021171
11:00+12сз11615 0.1 1019762
14:00+15ссз114099 0.2 10172264
17:00+14сз114081 0.0 10161572
20:00+12сз115223 0.0 101511
12 мая, ср
ср1223:00+7с116351 0.0 101610
02:00+5ссв278510 0.0 1016146
05:00+4св269774 0.0 1016160
08:00+6ссв3682100 0.1 1017848
11:00+6ссв3466100 0.0 10171122
14:00+7ссв3463100 0.0 10181032
17:00+11всв143893 0.1 10172044
20:00+9юз2251100 0.1 101775
13 мая, чт
чт1323:00+3зюз237819 0.0 102065
02:00+1сз00840 0.0 102110
05:000ююв11890 0.0 102110
08:00+5ююв11630 0.0 1021238
11:00+12юв11362 0.0 10201720
14:00+15ююв11295 0.0 10181979
17:00+15юв11290 0.0 10151972
20:00+12вюв23450 0.0 101477